{"data":{"norad_id":52843,"intl_designator":"2022-062P","name":"STARLINK-4188","alt_names":[],"object_type":"PAYLOAD","status":"ACTIVE","operator":null,"country":"US","launch_date":"2022-06-17","launch_site_code":"AFETR","launch_vehicle":null,"mission":null,"orbit_class":"UNKNOWN","rcs_meters":null,"size_class":null,"mass_kg":null,"dimensions":null,"purposes":["comms"],"wikipedia_slug":null,"has_3d_model":false,"image_url":null,"decayed_at":null,"tle_current":{"epoch":"2026-05-25T00:42:05.292288Z","epoch_age_seconds":69028,"freshness":"FRESH","line1":"1 52843U 22062P   26145.02922792 -.00000541  00000+0 -15875-4 0  9996","line2":"2 52843  53.2141  51.4196 0001484  78.1793 281.9365 15.08840106217319","mean_motion":15.08840106,"eccentricity":0.0001484,"inclination_deg":53.2141,"raan_deg":51.4196,"arg_perigee_deg":78.1793,"mean_anomaly_deg":281.9365,"bstar":-1.5875e-5,"rev_number":21731,"period_min":95.437547973026,"perigee_km":538.71645156289,"apogee_km":540.76967836617,"semimajor_km":6917.8800649645,"source":"CELESTRAK","updated_at":"2026-05-25T13:38:17.243309Z"}}}